Weather History for KSWF - May, 2013

Change the Weather History Date:

Monday, May 6, 2013

  Actual Average Record
Temperature  
Mean Temperature 55 °F -  
Max Temperature 71 °F 65 °F 87 °F (1980)
Min Temperature 39 °F 45 °F 34 °F (1975)
Degree Days  
Heating Degree Days 10    
Growing Degree Days 5 (Base 50)    
Moisture  
Dew Point 46 °F    
Average Humidity 72    
Maximum Humidity 93    
Minimum Humidity 46    
Precipitation  
Precipitation 0.00 in - - ()
Sea Level Pressure  
Sea Level Pressure 30.22 in    
Wind  
Wind Speed 2 mph (SSE)    
Max Wind Speed 12 mph    
Max Gust Speed -    
Visibility 16 miles    
Events      
Averages and records for this station are not official NWS values.
T = Trace of Precipitation, MM = Missing Value Source: NWS Daily Summary

Daily Weather History Graph

Daily Weather History Graph

Search for Another Location

Airport or City:

Trip Planner

Search our weather history database for the weather conditions in past years. The results will help you decide how hot, cold, wet, or windy it might be!

Date:

Astronomy

May. 06, 2013 Rise Set
Actual Time 5:46 AM EDT 7:59 PM EDT
Civil Twilight 5:16 AM EDT 8:30 PM EDT
Nautical Twilight 4:38 AM EDT 9:08 PM EDT
Astronomical Twilight 3:57 AM EDT 9:50 PM EDT
Moon 3:49 AM EDT (5/6) 4:55 PM EDT (5/6)
Length of Visible Light 15h 14m
Length of Day
14h 12m
Waning Crescent, 11% of the Moon is Illuminated
May 6
Waning Crescent
May 9
New
May 18
First Quarter
May 25
Full
May 31
Last Quarter

Hourly Weather History & Observations

Time (EDT) Temp. Windchill Dew Point Humidity Pressure Visibility Wind Dir Wind Speed Gust Speed Precip Events Conditions
12:45 AM 46.4 °F - 41.0 °F 81% 30.25 in 10.0 mi Calm Calm - N/A   Clear
1:45 AM 44.6 °F - 42.8 °F 93% 30.24 in 10.0 mi Calm Calm - N/A   Clear
4:45 AM 41.0 °F - 39.2 °F 93% 30.22 in 10.0 mi Calm Calm - N/A   Clear
5:45 AM 39.2 °F - 37.4 °F 93% 30.24 in 15.0 mi Calm Calm - N/A   Partly Cloudy
6:45 AM 42.8 °F 38.6 °F 41.0 °F 93% 30.26 in 20.0 mi SSE 6.9 mph - N/A   Partly Cloudy
7:45 AM 46.4 °F 43.5 °F 44.6 °F 93% 30.28 in 15.0 mi SE 5.8 mph - N/A   Scattered Clouds
8:45 AM 48.2 °F - 42.8 °F 82% 30.28 in 15.0 mi Calm Calm - N/A   Mostly Cloudy
9:45 AM 51.8 °F - 44.6 °F 76% 30.28 in 20.0 mi Calm Calm - N/A   Mostly Cloudy
10:45 AM 55.4 °F - 44.6 °F 67% 30.28 in 20.0 mi Calm Calm - N/A   Partly Cloudy
11:45 AM 59.0 °F - 46.4 °F 63% 30.26 in 20.0 mi Calm Calm - N/A   Clear
12:45 PM 62.6 °F - 48.2 °F 59% 30.23 in 20.0 mi Variable 4.6 mph - N/A   Clear
1:45 PM 66.2 °F - 48.2 °F 52% 30.21 in 20.0 mi Variable 5.8 mph - N/A   Clear
2:45 PM 66.2 °F - 48.2 °F 52% 30.18 in 20.0 mi Calm Calm - N/A   Clear
3:45 PM 69.8 °F - 50.0 °F 49% 30.16 in 20.0 mi Calm Calm - N/A   Clear
4:45 PM 71.6 °F - 50.0 °F 46% 30.14 in 20.0 mi SE 11.5 mph - N/A   Clear
5:45 PM 69.8 °F - 50.0 °F 49% 30.13 in 20.0 mi SSE 11.5 mph - N/A   Clear
6:45 PM 68.0 °F - 51.8 °F 56% 30.14 in 20.0 mi SSE 9.2 mph - N/A   Clear
8:45 PM 62.6 °F - 53.6 °F 72% 30.17 in 10.0 mi SSE 9.2 mph - N/A   Clear
9:45 PM 60.8 °F - 53.6 °F 77% 30.18 in 10.0 mi SSE 6.9 mph - N/A   Clear
10:45 PM 55.4 °F - 51.8 °F 88% 30.19 in 10.0 mi Calm Calm - N/A   Clear